When you browse on this site, cookies collect data to enhance your experience and personalize the content and advertising you see.
Visit our Privacy Policy to learn more. By continuing to use the site, you agree to this use of cookies and data.
  • In Österreich
  • Länderverzeichnis
  • Für 7 Tage
  • Wassertemperatur
  • Satellitenkarten
  • Wetterkarte
  • News
  • Widgets
  • user-avatar
    Anmelden

    Stündliche Wetter Rudnya

    Heute, 23 Juli, Dienstag

    Zeit Temperatur Niederschläge Wind Luftdruck Luftfeuchtigkeit
    00:00 +16°C° 0 mm 3 m/S 749 mmHg 94%
    01:00 +15°C° 0 mm 4 m/S 749 mmHg 95%
    02:00 +15°C° 0 mm 4 m/S 748 mmHg 96%
    03:00 +14°C° 0 mm 4 m/S 748 mmHg 96%
    04:00 +14°C° 0 mm 4 m/S 748 mmHg 95%
    05:00 +14°C° 0 mm 4 m/S 748 mmHg 95%
    06:00 +14°C° 0 mm 4 m/S 748 mmHg 93%
    07:00 +15°C° 0 mm 4 m/S 748 mmHg 90%
    08:00 +15°C° 0 mm 4 m/S 748 mmHg 88%
    09:00 +17°C° 0 mm 4 m/S 748 mmHg 85%
    10:00 +17°C° 0 mm 4 m/S 748 mmHg 83%
    11:00 +17°C° 0 mm 4 m/S 748 mmHg 81%
    12:00 +18°C° 0 mm 4 m/S 748 mmHg 79%
    13:00 +18°C° 0 mm 4 m/S 747 mmHg 77%
    14:00 +19°C° 0 mm 4 m/S 747 mmHg 75%
    15:00 +18°C° 0.1 mm 4 m/S 747 mmHg 79%
    16:00 +18°C° 0.1 mm 4 m/S 747 mmHg 82%
    17:00 +17°C° 0.1 mm 4 m/S 747 mmHg 85%
    18:00 +17°C° 0 mm 4 m/S 747 mmHg 86%
    19:00 +17°C° 0 mm 3 m/S 747 mmHg 87%
    20:00 +17°C° 0 mm 3 m/S 746 mmHg 88%
    21:00 +17°C° 0 mm 3 m/S 746 mmHg 89%
    22:00 +17°C° 0 mm 3 m/S 746 mmHg 90%
    23:00 +15°C° 0 mm 4 m/S 746 mmHg 91%

    Morgen, 24 Juli, Mittwoch

    Zeit Temperatur Niederschläge Wind Luftdruck Luftfeuchtigkeit
    00:00 +15°C° 0 mm 4 m/S 746 mmHg 92%
    01:00 +15°C° 0 mm 4 m/S 746 mmHg 92%
    02:00 +15°C° 0 mm 4 m/S 746 mmHg 93%
    03:00 +15°C° 0 mm 4 m/S 746 mmHg 93%
    04:00 +14°C° 0 mm 4 m/S 746 mmHg 94%
    05:00 +14°C° 0 mm 4 m/S 746 mmHg 94%
    06:00 +15°C° 0 mm 4 m/S 746 mmHg 90%
    07:00 +17°C° 0 mm 4 m/S 746 mmHg 87%
    08:00 +17°C° 0 mm 5 m/S 746 mmHg 83%
    09:00 +19°C° 0.1 mm 5 m/S 746 mmHg 79%
    10:00 +20°C° 0.1 mm 5 m/S 746 mmHg 75%
    11:00 +22°C° 0.1 mm 5 m/S 747 mmHg 72%
    12:00 +22°C° 0.8 mm 5 m/S 746 mmHg 72%
    13:00 +22°C° 0.8 mm 5 m/S 746 mmHg 73%
    14:00 +22°C° 0.8 mm 5 m/S 746 mmHg 74%
    15:00 +22°C° 0.5 mm 5 m/S 747 mmHg 73%
    16:00 +22°C° 0.5 mm 5 m/S 747 mmHg 72%
    17:00 +22°C° 0.5 mm 5 m/S 747 mmHg 71%
    18:00 +21°C° 0.1 mm 4 m/S 747 mmHg 76%
    19:00 +19°C° 0.1 mm 3 m/S 747 mmHg 80%
    20:00 +18°C° 0.1 mm 2 m/S 747 mmHg 84%
    21:00 +17°C° 0 mm 2 m/S 747 mmHg 85%
    22:00 +16°C° 0 mm 2 m/S 748 mmHg 87%
    23:00 +16°C° 0 mm 3 m/S 748 mmHg 89%

    übermorgen, 25 Juli, Donnerstag

    Zeit Temperatur Niederschläge Wind Luftdruck Luftfeuchtigkeit
    00:00 +14°C° 0 mm 3 m/S 748 mmHg 90%
    01:00 +14°C° 0 mm 3 m/S 748 mmHg 90%
    02:00 +13°C° 0 mm 3 m/S 748 mmHg 91%
    03:00 +13°C° 0 mm 3 m/S 748 mmHg 91%
    04:00 +13°C° 0 mm 3 m/S 748 mmHg 91%
    05:00 +13°C° 0 mm 3 m/S 749 mmHg 91%
    06:00 +16°C° 0 mm 3 m/S 749 mmHg 84%
    07:00 +18°C° 0 mm 4 m/S 749 mmHg 78%
    08:00 +20°C° 0 mm 4 m/S 748 mmHg 71%
    09:00 +20°C° 0.5 mm 4 m/S 748 mmHg 70%
    10:00 +21°C° 0.5 mm 4 m/S 748 mmHg 69%
    11:00 +22°C° 0.5 mm 5 m/S 748 mmHg 68%
    12:00 +23°C° 1.1 mm 5 m/S 748 mmHg 68%
    13:00 +23°C° 1.1 mm 5 m/S 748 mmHg 67%
    14:00 +23°C° 1.1 mm 5 m/S 747 mmHg 67%
    15:00 +23°C° 0.9 mm 5 m/S 747 mmHg 71%
    16:00 +22°C° 0.9 mm 5 m/S 747 mmHg 74%
    17:00 +21°C° 0.9 mm 5 m/S 747 mmHg 78%
    18:00 +20°C° 0.4 mm 4 m/S 747 mmHg 82%
    19:00 +19°C° 0.4 mm 4 m/S 746 mmHg 86%
    20:00 +18°C° 0.4 mm 3 m/S 746 mmHg 90%
    21:00 +17°C° 0 mm 3 m/S 746 mmHg 92%
    22:00 +16°C° 0 mm 3 m/S 746 mmHg 94%
    23:00 +16°C° 0 mm 3 m/S 746 mmHg 95%

    26 Juli, Freitag

    Zeit Temperatur Niederschläge Wind Luftdruck Luftfeuchtigkeit
    00:00 +14°C° 0 mm 3 m/S 746 mmHg 96%
    01:00 +15°C° 0 mm 2 m/S 746 mmHg 96%
    02:00 +14°C° 0 mm 2 m/S 746 mmHg 97%
    03:00 +14°C° 0 mm 2 m/S 746 mmHg 97%
    04:00 +14°C° 0 mm 2 m/S 746 mmHg 97%
    05:00 +14°C° 0 mm 2 m/S 746 mmHg 97%
    06:00 +15°C° 0 mm 2 m/S 746 mmHg 95%
    07:00 +16°C° 0 mm 2 m/S 746 mmHg 93%
    08:00 +17°C° 0 mm 2 m/S 746 mmHg 91%
    09:00 +18°C° 0.1 mm 2 m/S 746 mmHg 88%
    10:00 +18°C° 0.1 mm 2 m/S 746 mmHg 86%
    11:00 +19°C° 0.1 mm 2 m/S 746 mmHg 83%
    12:00 +20°C° 0.1 mm 2 m/S 746 mmHg 78%
    13:00 +21°C° 0.1 mm 2 m/S 745 mmHg 73%
    14:00 +23°C° 0.1 mm 2 m/S 745 mmHg 68%
    15:00 +23°C° 0.4 mm 2 m/S 745 mmHg 70%
    16:00 +22°C° 0.4 mm 3 m/S 745 mmHg 72%
    17:00 +22°C° 0.4 mm 3 m/S 745 mmHg 73%
    18:00 +21°C° 0.3 mm 3 m/S 745 mmHg 80%
    19:00 +19°C° 0.3 mm 3 m/S 745 mmHg 86%
    20:00 +18°C° 0.3 mm 2 m/S 745 mmHg 92%
    21:00 +18°C° 0 mm 2 m/S 746 mmHg 93%
    22:00 +17°C° 0 mm 2 m/S 746 mmHg 94%
    23:00 +17°C° 0 mm 2 m/S 746 mmHg 94%

    27 Juli, Samstag

    Zeit Temperatur Niederschläge Wind Luftdruck Luftfeuchtigkeit
    00:00 +16°C° 0 mm 2 m/S 746 mmHg 95%
    01:00 +16°C° 0 mm 2 m/S 746 mmHg 95%
    02:00 +16°C° 0 mm 2 m/S 746 mmHg 96%
    03:00 +16°C° 0 mm 2 m/S 746 mmHg 96%
    04:00 +16°C° 0 mm 2 m/S 746 mmHg 97%
    05:00 +16°C° 0 mm 2 m/S 747 mmHg 98%
    06:00 +17°C° 0 mm 3 m/S 747 mmHg 95%
    07:00 +18°C° 0 mm 3 m/S 747 mmHg 93%
    08:00 +19°C° 0 mm 4 m/S 747 mmHg 90%
    09:00 +19°C° 0.2 mm 4 m/S 747 mmHg 87%
    10:00 +20°C° 0.2 mm 4 m/S 747 mmHg 84%
    11:00 +20°C° 0.2 mm 4 m/S 747 mmHg 80%
    12:00 +20°C° 0.1 mm 4 m/S 747 mmHg 81%
    13:00 +20°C° 0.1 mm 3 m/S 747 mmHg 82%
    14:00 +20°C° 0.1 mm 2 m/S 746 mmHg 83%
    15:00 +21°C° 0.2 mm 2 m/S 746 mmHg 80%
    16:00 +23°C° 0.2 mm 2 m/S 746 mmHg 78%
    17:00 +25°C° 0.2 mm 2 m/S 746 mmHg 75%
    18:00 +24°C° 1.1 mm 2 m/S 746 mmHg 79%
    19:00 +21°C° 1.1 mm 2 m/S 746 mmHg 84%
    20:00 +20°C° 1.1 mm 2 m/S 746 mmHg 88%
    21:00 +20°C° 0 mm 2 m/S 746 mmHg 90%
    22:00 +19°C° 0 mm 2 m/S 746 mmHg 92%
    23:00 +19°C° 0 mm 2 m/S 746 mmHg 94%

    28 Juli, Sonntag

    Zeit Temperatur Niederschläge Wind Luftdruck Luftfeuchtigkeit
    00:00 +18°C° 0 mm 2 m/S 746 mmHg 94%
    01:00 +18°C° 0 mm 2 m/S 746 mmHg 95%
    02:00 +18°C° 0 mm 2 m/S 746 mmHg 96%
    03:00 +18°C° 0 mm 2 m/S 746 mmHg 96%
    04:00 +17°C° 0 mm 2 m/S 746 mmHg 96%
    05:00 +17°C° 0 mm 2 m/S 746 mmHg 96%
    06:00 +19°C° 0 mm 2 m/S 746 mmHg 93%
    07:00 +20°C° 0 mm 2 m/S 746 mmHg 89%
    08:00 +23°C° 0 mm 2 m/S 746 mmHg 85%
    09:00 +24°C° 0 mm 2 m/S 746 mmHg 77%
    10:00 +26°C° 0 mm 3 m/S 746 mmHg 69%
    11:00 +28°C° 0 mm 3 m/S 746 mmHg 61%
    12:00 +28°C° 0 mm 3 m/S 746 mmHg 58%
    13:00 +29°C° 0 mm 3 m/S 746 mmHg 56%
    14:00 +29°C° 0 mm 3 m/S 745 mmHg 53%
    15:00 +29°C° 0 mm 3 m/S 745 mmHg 54%
    16:00 +29°C° 0 mm 2 m/S 745 mmHg 56%
    17:00 +29°C° 0 mm 2 m/S 745 mmHg 58%
    18:00 +27°C° 0 mm 2 m/S 745 mmHg 64%
    19:00 +25°C° 0 mm 2 m/S 745 mmHg 71%
    20:00 +23°C° 0 mm 1 m/S 745 mmHg 77%
    21:00 +23°C° 0 mm 2 m/S 745 mmHg 81%
    22:00 +21°C° 0 mm 2 m/S 745 mmHg 86%
    23:00 +20°C° 0 mm 2 m/S 746 mmHg 90%
    Mehr zeigen